Delta Virtual Airport Information Service

Keflavik International Airport

ICAO: BIKF Country: Iceland
Latitude: 63.985 Longitude: -22.6055
Latest Arrival : DAC6996 (CYFC-BIKF) Latest Departure : DAC6996 (BIKF-EFRO)


WX CaptureLIVE
Data provided by noaa.gov | Fetched at 03:14:17

METAR : BIKF 030830Z 12005KT 9999 -SHSN FEW004 SCT010CB BKN088 M01/M01 Q0984

TAF : BIKF 030731Z 0309/0409 22008KT 9999 FEW020 BKN030 TX00/0315Z TNM05/0409Z TEMPO 0309/0400 2000 SHSN BKN010CB


Runway Data for BIKF
Data provided by openaviationdata.com

Runway ID Mag Var Hdg Length Elevation Surface ILS Freq ILS Id ILS Slope
2 -19 19° 9999 ft 171 ft Asphalt 111.3 IKN 3
11 -19 109° 10051 ft 171 ft Asphalt 109.5 IKF 3
20 -19 199° 9999 ft 171 ft Asphalt 110.3 IKO 3
29 -19 289° 10051 ft 171 ft Asphalt 108.5 IKW 3

Keflavik International Airport, Iceland
Use only for reference purposes



Not for navigational purposes.